Wind_Speed
13 12 9 11 6 3 15 17 17 18 18 15 12 13 10 15 16 6 23 20 31 27 23 19 19 23 22 19 18 20 20 20 21 22 22 22 21 22 25 22 19 17 16 15 14 14 14 13 14
9 6 11 5 5 12 12 15 16 14 6 8 15 13 13 15 13 18 20 23 25 25 23 20 20 24 22 19 19 20 20 20 20 21 20 21 20 21 19 18 16 14 13 13 11 12 11 11 12
8 8 10 6 1 12 13 14 8 11 10 15 12 15 16 12 15 16 26 25 26 23 23 22 22 24 23 18 19 20 19 20 19 19 17 19 18 17 15 14 13 13 11 11 10 9 10 9 10
7 6 5 3 11 14 14 12 10 13 10 9 10 12 11 17 17 23 27 25 24 25 24 22 22 23 23 21 19 19 19 19 19 18 16 17 16 15 14 12 11 11 10 10 10 9 9 9 10
15 4 5 4 12 9 11 9 7 10 10 12 16 17 14 11 17 29 29 26 23 28 24 21 20 21 22 21 19 19 20 19 17 16 16 16 15 14 12 11 11 11 10 9 9 8 8 9 10
9 8 4 9 12 10 10 10 11 11 11 5 12 16 13 15 22 28 29 27 23 27 24 21 20 20 20 22 20 19 18 17 16 16 15 14 15 12 12 10 10 9 8 8 7 7 8 8 9
15 10 8 4 7 11 9 4 11 7 14 12 7 15 11 16 23 26 26 26 23 23 24 21 18 17 17 19 19 19 18 16 16 15 14 14 14 12 10 9 8 8 7 7 7 8 8 9 9
8 5 2 4 6 13 9 9 9 12 13 4 6 6 13 18 26 26 25 25 24 23 25 22 19 19 17 15 16 16 16 16 14 14 14 12 13 12 11 11 10 9 8 7 8 8 8 9 10
8 7 3 5 7 10 8 7 8 1 3 3 6 10 14 25 28 28 26 25 23 22 23 23 21 18 18 17 15 15 15 14 13 12 12 11 10 10 11 10 12 10 9 9 8 8 9 10 9
11 9 3 4 7 7 8 5 3 4 6 12 8 9 22 25 27 26 26 26 26 24 22 23 22 19 17 16 16 15 15 13 13 12 12 12 12 11 9 13 10 10 10 9 8 9 9 10 10
6 9 10 4 2 8 11 10 8 5 6 11 7 15 18 21 23 23 24 25 26 25 23 20 22 22 18 17 16 15 13 17 14 14 14 12 9 9 8 9 9 9 9 9 9 8 8 12 14
9 9 5 9 9 10 12 11 9 10 12 7 5 8 18 18 19 21 23 24 25 25 24 22 20 23 20 20 18 18 17 18 18 17 17 14 12 11 9 10 11 11 11 12 11 11 11 13 11
11 10 7 10 12 12 12 12 11 10 6 2 4 6 17 17 18 22 23 23 25 26 25 24 22 21 19 16 16 15 16 16 16 19 15 15 16 13 12 14 11 11 12 11 10 13 11 11 11
13 11 12 12 4 4 6 6 5 1 5 5 2 5 16 16 19 22 23 23 25 26 27 25 24 23 21 20 15 15 14 14 13 16 17 18 15 14 16 13 11 13 12 14 13 11 13 13 12
10 12 8 3 1 3 6 6 7 2 2 4 3 6 5 18 20 21 23 24 25 26 27 26 26 25 24 22 18 19 16 15 16 13 13 18 17 17 13 15 14 19 15 9 12 10 11 12 13
13 13 10 11 6 4 12 11 9 3 3 3 0 3 4 10 20 21 23 24 25 27 28 28 27 27 26 25 23 20 17 17 16 16 17 18 20 14 16 18 16 17 12 14 13 13 15 14 14
7 5 4 4 2 5 4 9 10 6 3 3 5 2 5 8 10 20 20 22 23 25 27 28 29 28 27 25 22 21 18 18 18 18 19 21 20 20 16 17 17 13 15 16 16 15 15 13 13
10 9 3 3 4 6 6 7 7 3 1 6 7 2 5 6 9 16 16 20 21 22 24 26 26 26 28 24 22 19 19 20 19 20 21 19 21 23 22 19 16 15 17 16 14 12 14 14 14
6 7 6 3 3 10 4 3 5 3 6 9 8 6 6 6 9 14 13 16 19 20 21 22 23 21 24 22 23 22 23 22 22 22 21 22 23 25 25 21 21 18 20 17 15 16 16 14 13
9 8 8 3 1 7 4 3 3 3 5 7 11 10 11 11 8 11 12 15 16 18 19 20 21 21 23 23 23 21 19 21 21 22 22 24 24 27 27 26 23 24 21 19 20 19 18 18 14
12 9 7 8 3 12 7 13 9 11 7 9 12 11 12 11 10 8 10 13 16 16 17 19 20 22 25 25 24 21 18 20 21 21 22 24 25 27 30 30 26 23 24 24 27 23 21 19 16
13 5 6 9 10 9 3 1 12 9 9 8 9 11 11 11 10 9 8 6 3 9 16 18 18 20 23 25 23 25 25 24 22 18 23 25 27 27 29 29 31 27 26 26 22 23 22 21 19
7 6 6 9 11 12 12 7 11 10 7 7 11 8 9 8 9 8 9 8 6 4 4 5 18 22 21 25 30 28 28 24 20 27 24 26 23 30 30 31 29 29 28 25 25 21 22 22 22
7 10 14 13 13 12 10 4 5 8 7 8 8 7 5 6 8 8 8 6 4 4 3 1 3 11 21 26 26 31 26 27 25 29 38 29 26 28 33 34 32 30 29 30 25 25 23 25 23
11 16 10 8 10 3 8 5 7 9 7 6 8 3 4 2 6 4 6 3 3 3 2 2 1 4 10 19 20 32 30 29 30 30 30 35 26 28 30 37 35 34 33 30 29 26 27 27 26
6 8 7 11 10 12 6 6 5 8 7 7 4 4 2 3 6 4 4 3 4 5 5 4 2 5 8 12 19 27 33 31 30 33 33 32 34 30 30 38 37 33 30 33 29 30 27 27 25
4 8 9 10 17 12 11 5 9 10 6 6 1 3 4 6 6 4 3 2 4 6 6 5 5 7 8 11 14 18 23 30 30 33 32 37 31 33 31 33 37 34 35 33 32 30 28 27 26
10 11 10 9 6 10 6 4 8 9 6 3 4 7 7 9 9 9 7 8 7 8 8 7 8 9 11 11 12 13 18 22 28 31 32 32 36 34 31 30 32 34 34 34 31 30 30 28 28
8 11 6 9 8 11 10 4 8 3 3 3 9 12 14 11 9 8 9 11 11 12 11 11 11 10 12 12 12 11 14 17 22 27 30 32 31 34 34 31 29 32 33 33 34 32 30 30 29
10 15 16 10 10 9 11 11 9 7 5 8 10 9 10 10 10 10 9 13 14 12 13 13 13 13 12 12 12 13 15 17 19 21 26 28 30 31 33 31 33 31 30 32 33 32 31 31 27
Wind_Direction
244 259 272 274 273 145 69 64 51 54 45 54 50 55 71 35 12 73 126 129 134 138 142 141 141 144 141 134 128 127 133 133 133 138 132 128 128 132 131 126 124 121 117 113 107 102 94 95 97
229 255 251 272 237 69 67 68 61 51 39 69 36 82 59 62 71 116 119 139 134 136 145 145 144 147 144 140 136 139 139 138 138 139 134 133 128 130 132 128 125 121 118 116 114 107 98 95 97
256 266 274 247 316 53 69 59 77 76 45 41 84 52 45 85 111 119 128 142 136 141 140 147 145 149 150 149 144 141 143 142 142 143 138 137 133 127 127 127 128 127 124 120 117 113 108 103 101
243 212 215 301 72 70 54 56 14 61 48 68 59 98 89 99 129 125 140 143 141 146 138 149 150 149 148 149 149 147 147 149 148 144 144 142 143 136 131 133 135 129 127 126 121 118 117 116 114
244 302 295 84 76 77 89 78 73 89 75 36 60 72 99 104 116 136 145 143 151 140 139 151 154 156 154 151 150 152 151 152 154 151 152 155 150 148 142 137 136 137 133 128 125 124 124 126 129
265 147 279 115 89 82 65 6 25 40 74 89 94 106 97 126 136 145 149 150 155 137 144 151 160 159 156 156 156 158 157 156 154 158 162 163 165 159 159 161 153 148 142 146 139 135 133 132 132
283 306 34 154 108 76 41 350 30 12 45 59 345 71 117 145 148 151 153 155 155 144 150 153 161 160 161 158 159 160 158 159 166 165 170 173 170 173 176 170 172 166 153 158 150 158 146 145 144
292 274 203 348 5 73 64 11 55 16 68 109 349 29 151 140 154 155 158 160 160 157 154 162 163 165 169 168 168 162 166 169 172 172 176 175 178 185 187 189 183 178 185 160 160 161 155 154 167
240 265 100 10 342 20 8 3 50 137 354 107 10 60 118 144 156 158 162 165 168 169 161 165 167 171 172 171 175 173 177 175 173 178 180 175 179 187 191 194 196 186 179 167 165 165 166 171 175
265 286 71 64 324 311 325 347 346 317 323 56 125 104 122 152 162 165 169 172 176 175 174 174 169 174 178 178 179 180 181 180 185 188 185 191 200 186 186 171 181 181 177 174 176 178 183 187 183
289 299 13 281 340 320 315 306 343 320 295 8 41 133 143 162 169 172 177 178 181 179 179 180 167 168 177 188 173 189 191 191 189 199 193 202 188 189 185 169 177 182 190 188 184 199 197 210 216
274 283 297 303 321 298 284 293 295 300 327 314 58 142 154 170 174 177 181 180 182 185 186 183 183 167 174 191 175 187 199 197 193 188 196 193 184 190 193 178 191 193 197 204 194 198 209 204 235
254 282 318 292 292 290 283 270 278 294 290 277 15 157 160 178 175 180 183 186 185 186 189 186 184 179 187 186 191 202 198 201 195 191 198 195 196 196 194 197 197 198 214 200 201 201 210 224 212
321 310 291 274 350 309 290 266 215 110 355 283 284 166 176 178 180 182 184 188 187 186 189 186 185 183 189 190 190 207 199 188 214 196 192 205 200 196 197 201 204 201 212 211 201 188 205 220 221
285 276 252 137 72 325 312 208 102 308 234 224 221 144 171 162 186 185 186 187 185 183 186 185 187 185 190 190 193 197 195 204 199 204 191 190 208 198 196 198 212 224 196 230 217 216 214 223 233
247 247 236 123 300 95 292 127 139 7 294 281 357 100 159 179 174 186 188 187 184 182 183 183 187 189 190 190 193 197 205 203 200 203 195 190 207 206 203 213 205 213 209 195 215 208 221 220 227
194 269 17 106 137 312 278 344 50 333 274 310 278 45 118 154 184 174 185 187 186 186 181 183 185 188 192 192 196 200 205 206 207 204 204 191 203 207 210 215 214 206 216 206 206 213 221 227 238
3 334 29 312 57 308 261 357 61 354 244 64 35 357 140 163 180 147 181 186 187 188 188 191 190 189 190 192 195 202 209 213 216 212 211 189 200 205 205 211 218 203 219 221 219 222 219 225 221
319 293 288 109 59 281 60 346 74 67 69 81 65 68 71 118 128 143 177 188 185 187 188 194 200 195 189 195 198 203 209 212 219 219 215 207 206 206 204 212 206 214 218 219 218 220 229 230 237
276 271 258 180 148 270 288 221 114 118 87 69 91 64 93 111 115 136 171 176 191 183 191 198 204 205 200 205 211 214 213 218 219 224 217 214 208 210 206 211 212 208 219 211 215 217 223 224 227
250 272 331 319 317 243 261 233 178 146 165 129 108 93 75 78 95 119 155 178 185 184 199 208 208 212 205 211 211 219 218 235 217 222 223 218 222 214 211 209 215 215 212 217 215 216 220 229 223
276 62 290 278 276 301 186 84 185 143 161 178 126 114 98 101 102 110 125 146 163 165 198 213 212 216 213 212 216 213 203 224 229 215 230 220 215 224 223 216 212 219 214 228 218 219 222 226 235
34 326 299 293 276 273 256 242 121 185 173 162 110 89 95 91 89 94 98 110 115 141 174 214 211 210 217 213 221 219 235 230 222 220 227 227 210 219 227 223 219 217 220 223 227 221 219 226 233
329 272 245 242 248 248 229 304 284 60 71 123 114 106 98 100 105 103 112 112 104 110 111 120 199 222 213 220 222 232 234 220 226 212 219 224 212 216 222 230 219 220 222 225 220 222 224 224 234
245 261 276 230 233 265 114 279 299 89 81 25 86 117 100 90 96 101 100 72 68 55 43 346 196 235 230 226 225 237 237 236 227 231 221 228 245 211 215 221 219 216 217 223 221 220 225 225 230
315 325 304 303 298 313 336 252 115 67 104 123 152 185 234 56 44 16 25 32 16 356 346 344 317 256 249 244 244 238 236 236 237 231 227 222 224 229 219 212 215 216 218 218 222 224 225 228 230
170 255 0 306 265 247 256 186 159 132 167 183 297 15 20 18 331 341 322 306 297 306 319 315 307 282 269 272 272 260 251 237 232 233 229 233 230 231 220 210 205 212 215 218 217 224 227 225 228
269 333 280 234 267 278 297 314 248 162 186 160 296 341 335 332 321 317 317 311 315 299 292 291 295 289 284 273 276 275 262 252 242 235 230 229 232 234 235 209 206 209 216 218 221 224 228 230 228
187 236 204 277 310 298 293 301 70 3 282 351 325 320 347 328 301 308 315 317 309 298 299 296 291 288 287 283 276 273 274 261 246 243 238 235 235 235 233 226 221 211 213 217 220 224 229 225 227
275 280 281 282 290 296 308 284 15 34 325 299 292 328 323 327 324 320 322 312 308 304 299 296 298 286 278 279 282 275 269 265 263 257 247 242 235 236 234 229 225 224 220 219 217 219 225 231 229
Height
758 756 754 749 762 718 737 739 721 735 735 722 723 730 739 736 744 773 758 766 773 780 789 793 794 795 798 799 802 803 806 809 814 816 818 819 821 823 825 828 830 832 834 836 838 839 840 841 841
755 753 750 740 763 743 747 727 739 735 724 716 721 722 734 749 739 748 761 769 775 781 789 794 796 798 799 802 804 807 810 813 817 818 820 823 825 826 829 831 833 835 837 838 840 841 842 843 844
753 750 742 724 734 754 749 729 728 725 718 720 727 728 736 749 746 752 765 770 777 784 789 795 798 800 802 805 807 811 813 816 819 821 823 826 829 830 832 833 835 837 839 840 841 843 843 844 845
748 738 737 779 739 734 731 729 718 721 716 718 719 740 741 744 748 756 767 772 777 782 789 797 800 802 804 807 810 812 815 818 821 823 826 828 831 833 834 835 837 839 840 842 843 844 845 846 847
741 733 748 737 740 729 721 719 721 726 726 726 722 744 751 749 752 760 768 773 776 782 791 799 803 805 806 809 812 814 817 820 823 825 828 831 833 835 836 838 839 841 842 843 844 845 847 848 849
737 744 767 757 745 730 722 715 715 718 718 724 726 736 747 751 758 763 768 773 775 780 792 800 805 808 809 811 814 817 819 822 825 828 830 832 834 836 838 839 841 842 843 844 845 847 848 850 851
737 734 747 744 744 737 729 715 720 721 724 730 719 738 746 750 758 764 769 774 777 782 791 800 806 810 812 813 815 817 820 823 826 828 831 832 834 837 839 840 841 844 844 845 846 848 849 851 852
737 731 747 736 742 746 724 715 716 721 729 717 719 736 747 746 757 764 770 775 779 783 789 798 804 810 814 816 817 821 822 824 827 830 832 832 835 837 839 840 842 844 844 845 847 849 850 851 853
731 745 750 751 747 741 719 727 715 715 718 717 719 722 726 745 755 763 770 775 779 784 787 795 802 808 812 815 817 820 822 824 828 830 832 834 835 836 838 839 841 843 845 846 847 849 851 851 853
737 739 740 732 731 740 726 726 723 723 722 719 718 727 734 747 755 760 766 771 777 783 786 791 798 806 811 814 816 818 822 825 829 831 833 834 834 835 836 838 841 843 845 846 848 849 851 852 853
728 743 728 728 724 727 729 727 716 723 731 718 725 728 736 745 753 759 766 770 776 781 786 789 794 802 809 811 816 818 820 822 825 828 832 833 833 834 836 838 841 844 845 847 848 849 851 851 848
747 726 730 727 724 728 732 721 727 723 720 712 712 719 734 743 749 756 762 768 774 780 784 789 793 799 805 807 811 815 818 819 821 825 828 831 832 835 836 837 840 842 844 844 845 846 848 849 848
741 733 728 725 724 724 722 728 727 724 712 709 711 718 730 738 746 753 759 764 770 776 782 786 791 797 802 806 809 811 814 817 818 823 826 828 830 832 835 837 839 840 841 842 843 843 847 847 848
730 732 731 723 723 723 729 724 720 717 712 713 712 716 719 732 739 747 753 758 765 772 778 784 790 796 801 804 808 811 813 815 818 819 823 828 828 830 832 835 837 838 840 840 841 842 845 848 848
732 743 724 726 726 725 721 732 729 718 713 714 712 713 717 724 734 741 748 754 760 768 775 781 788 793 799 802 806 810 811 812 815 818 821 825 827 829 831 833 835 835 836 839 841 843 845 846 847
739 728 737 724 725 723 722 742 723 714 714 717 714 713 718 719 728 737 744 751 757 763 770 778 785 790 795 799 804 807 808 811 813 816 818 822 825 827 828 830 832 833 835 838 840 842 842 844 844
732 741 742 736 724 729 729 738 718 713 716 720 716 714 718 721 724 734 743 750 757 763 769 775 780 786 792 797 801 804 807 809 810 812 814 816 822 825 827 827 828 831 833 835 837 839 841 841 842
748 747 737 747 730 727 729 733 723 720 715 720 721 719 721 723 728 734 743 750 756 763 770 776 780 783 789 794 800 803 805 807 808 809 811 812 817 821 824 826 826 828 831 832 834 835 836 837 838
744 748 748 737 731 737 737 737 730 724 719 725 728 725 723 723 728 740 745 750 755 762 769 776 780 784 789 793 796 797 799 801 804 805 809 810 814 817 819 821 823 826 826 829 833 835 835 835 835
745 749 743 733 733 737 731 736 729 726 728 727 731 731 726 730 734 740 746 750 754 761 768 774 778 783 787 790 791 793 795 797 799 803 805 808 809 814 814 817 818 820 822 825 828 830 832 833 833
744 747 743 748 733 726 733 738 736 727 725 727 730 735 735 736 740 743 747 751 754 760 767 771 776 780 782 785 788 788 790 797 794 797 801 805 809 810 811 810 813 815 817 819 821 824 826 826 828
747 734 743 745 749 752 729 761 736 729 728 727 728 731 738 742 745 748 750 752 753 757 763 767 771 775 778 781 782 783 782 785 793 791 795 795 800 806 809 807 807 809 812 813 815 818 819 822 823
749 737 742 742 747 744 737 751 739 727 736 730 728 735 739 742 744 749 752 757 759 761 761 763 765 770 773 775 779 781 780 782 785 785 790 793 787 796 802 804 803 805 807 808 810 813 814 817 819
737 744 739 737 738 758 734 745 740 734 734 731 732 738 741 742 745 749 753 757 758 760 761 763 764 765 766 769 771 776 774 777 778 778 781 782 775 783 791 798 797 800 801 802 804 806 809 811 812
742 745 761 761 753 754 735 752 741 730 731 731 735 739 740 740 742 745 750 755 757 759 761 761 763 764 764 765 759 770 768 770 773 775 773 773 775 770 776 788 789 789 792 796 798 799 801 804 807
747 753 772 793 775 758 732 762 744 732 730 734 738 738 738 739 741 747 749 754 756 757 758 759 760 762 762 762 762 762 761 762 764 766 766 766 768 766 769 775 780 782 785 788 790 792 794 797 800
751 766 738 767 754 762 744 731 724 727 733 735 737 738 740 745 747 748 750 752 756 756 756 756 756 757 756 756 754 751 751 751 753 755 758 759 757 760 761 765 768 772 775 778 782 785 787 789 792
751 741 769 751 786 786 751 751 748 743 739 737 741 741 743 747 748 748 748 749 752 752 752 752 752 752 752 750 748 747 745 743 744 746 749 749 752 753 754 755 759 763 766 770 775 777 780 782 785
751 754 753 749 760 778 780 758 728 738 736 742 744 741 744 745 747 745 747 748 750 749 748 748 747 747 747 746 745 743 741 738 737 737 739 741 745 747 747 750 752 754 757 762 766 768 771 774 778
744 755 753 765 774 756 762 761 717 730 735 737 739 741 745 747 745 746 746 748 747 746 746 744 744 744 743 742 740 738 736 735 734 734 732 734 736 738 740 741 744 746 750 754 758 760 763 767 769